ボアッティーニ彗星

C/2013 V1 ( Boattini )

English version
Home page
Updated on November 15, 2021

---------------------------------------------------------------------

・ プロフィール

発見日 2013年11月4日
発見光度 15.6等
発見者 A. Boattini (Catalina Sky Survey)

・ 写真集

・ 軌道要素

Epoch 2014 Apr. 13.0 TT = JDT 2456760.5
T 2014 Apr. 21.23013 TT                                 MPCW
q   1.6608416            (2000.0)            P               Q
z  -0.0008140      Peri.   48.03301     -0.09908926     -0.48660255
                   Node    72.80993     +0.40161638     -0.81763448
e   1.0013518      Incl.   65.30876     +0.91043155     +0.30772035
From 2017 observations 2013 Nov. 4-2014 Aug. 31, mean residual 0".5.
     Nongravitational parameters A1 = +2.83, A2 = +0.3435.

・ 星図

・ 光度変化

        m1 = 10.0 + 5 logΔ + 10.0 log r

---------------------------------------------------------------------

軌道要素はM.P.E.C. 2015-B177に掲載されたものです。
星図はステラナビゲータ Ver.8 (アストロアーツ) で作成したものです。
光度グラフはComet for Windowsで作成したものです。

---------------------------------------------------------------------

Copyright(C) Seiichi Yoshida (comet@aerith.net). All rights reserved.